Location: Anumalkud?ru
(16.4847°N, 80.6636°E)
Time: 15:19:28
(UTC+00:00)

Milstar 3 - Pass Details

Date: 11 April 2026
Orbit: 1097 x 5148 km, 28.2° (Epoch: 11 May)

Event Time Altitude Azimuth Distance (km) Brightness Sun altitude
Rises 14:24:02 0° 211° (SSW) 4,008 5.9 -22.3°
Reaches altitude 10° 14:26:52 10° 198° (SSW) 3,213 5.2 -23.0°
Enters shadow 14:32:47 29° 147° (SSE) 2,555 4.2 -24.3°
